This demonstration page uses our WeatherBlox Daily Observations layout. Learn more.

Left ArrowRight Arrow

41.55636, -103.73856

Hourly Observations for December 16, 2020

Temp ( °F °C ) Dew Point ( °F °C ) Humidity (%) Winds ( mph kmh ) Pressure ( in mb ) Visibility ( mi km ) Precip ( " mm )
12:58 am 00:58 Mostly Cloudy 27 -3 16 -8.8 65 65 WNW 17 28 29.98 1015 10 16 0.00 0.00
1:58 am 01:58 Mostly Clear 26 -3.1 15 -9.3 63 63 W 12 19 29.98 1015 10 16 0.00 0.00
2:58 am 02:58 Partly Cloudy 26 -3.4 16 -8.7 67 67 WNW 13 20 30.00 1016 10 16 0.00 0.00
3:58 am 03:58 Mostly Cloudy 29 -1.5 18 -7.8 63 63 WNW 14 22 29.99 1016 10 16 0.00 0.00
4:58 am 04:58 Mostly Cloudy 30 -1.1 20 -6.7 66 66 NW 21 33 30.01 1016 10 16 0.00 0.00
5:58 am 05:58 Mostly Cloudy 30 -1.1 19 -7.1 64 64 NW 21 33 30.03 1017 10 16 0.00 0.00
6:58 am 06:58 Partly Cloudy 31 -0.5 19 -7.4 60 60 WNW 21 33 30.05 1018 10 16 0.00 0.00
7:58 am 07:58 Mostly Cloudy 31 -0.7 19 -7.2 62 62 WNW 17 28 30.08 1019 10 16 0.00 0.00
8:58 am 08:58 Sunny 29 -1.4 19 -7.2 65 65 WNW 12 19 30.11 1020 10 16 0.00 0.00
9:56 am 09:56 Mostly Cloudy 34 1.3 21 -6.1 58 58 WNW 18 30 30.13 1020 10 16 0.00 0.00
10:56 am 10:56 Mostly Cloudy 35 1.9 23 -5.2 60 60 NW 16 26 30.11 1020 10 16 0.00 0.00
11:56 am 11:56 Partly Cloudy 37 3 24 -4.3 59 59 NW 17 28 30.07 1018 10 16 0.00 0.00
12:56 pm 12:56 Mostly Cloudy 37 3 24 -4.5 58 58 NW 21 33 30.06 1018 10 16 0.00 0.00
1:56 pm 13:56 Mostly Cloudy 38 3.2 24 -4.6 57 57 NW 17 28 30.07 1018 10 16 0.00 0.00
2:56 pm 14:56 Cloudy 38 3.1 24 -4.5 58 58 NW 16 26 30.07 1018 10 16 0.00 0.00
3:56 pm 15:56 Cloudy 36 2.3 24 -4.3 62 62 NW 9 15 30.09 1019 10 16 0.00 0.00
4:58 pm 16:58 Cloudy 33 0.8 24 -4.7 67 67 NW 10 17 30.11 1020 10 16 0.00 0.00
5:58 pm 17:58 Mostly Cloudy 31 -0.5 23 -5 72 72 WNW 12 19 30.11 1020 10 16 0.00 0.00
6:58 pm 18:58 Mostly Cloudy 27 -3 21 -6.2 79 79 WSW 8 13 30.15 1021 10 16 0.00 0.00
7:58 pm 19:58 Mostly Cloudy 26 -3.6 20 -6.5 81 81 WSW 7 11 30.16 1021 10 16 0.00 0.00
8:58 pm 20:58 Clear 23 -4.9 19 -7.5 82 82 SW 6 9 30.17 1022 10 16 0.00 0.00
9:58 pm 21:58 Clear 23 -4.8 19 -7.4 82 82 SW 9 15 30.29 1026 10 16 0.00 0.00
10:58 pm 22:58 Mostly Clear 24 -4.7 18 -7.6 80 80 W 7 11 30.30 1026 10 16 0.00 0.00
11:58 pm 23:58 Clear 23 -5.1 18 -7.9 81 81 WSW 6 9 30.29 1026 10 16 0.00 0.00

Powered by AerisWeather